[[{"header":{"parameterUnit":"m.s-1","parameterCategory":1,"la1":30.2991,"la2":30.254,"lo1":-89.0895,"lo2":-89.0444,"dy":0.0017,"dx":0.0017,"nx":28,"ny":28,"refTime":"2023-08-03T09:00:00:Z","depth":0,"parameterNumber":2,"parameterNumberName":"U-component_of_WINDS"},"data":[0,0,0,0,0,0,0,0,0,0,0,0,0,0,0,0,0,0,0,0,0,0,0,0,0,0,0,0,0,0,0,0,0,0,0,0,0,0,0,0,0,0,0,0,0,0,0,0,0,0,0,0,0,0,0,0,0,0,3.7222,3.7223,0,3.7288,3.7289,3.729,3.7192,3.7189,3.7185,3.7182,3.725,3.7255,3.726,0,0,0,0,0,0,0,0,0,0,0,0,0,3.701,3.7014,3.7222,3.7223,3.7224,3.7288,3.7289,3.729,3.7193,3.7189,3.7184,3.7181,3.7248,3.7254,3.726,0,0,0,0,0,0,0,0,0,0,0,0,0,3.7092,3.7016,3.7222,3.7183,3.718,3.7288,3.7289,3.729,3.7194,3.7188,3.7183,3.7179,3.7246,3.7254,3.7261,3.741,0,0,3.7284,3.7287,0,0,0,0,0,0,0,0,3.7087,3.71,3.7188,3.7186,3.7183,3.7227,3.7239,3.7331,3.7195,3.7189,3.7182,3.7176,3.7246,3.7253,3.7277,3.7413,3.7416,3.7285,3.7289,3.7292,3.7294,0,0,0,0,0,0,0,3.7082,3.7096,3.7248,3.7189,3.7186,3.7162,3.7168,3.7256,3.7245,3.7189,3.7182,3.7191,3.7244,3.727,3.7278,3.7417,3.7284,3.7291,3.7296,3.7299,3.7677,3.7683,0,0,0,0,0,0,3.7081,3.7092,3.7246,3.725,3.7121,3.717,3.7176,3.7218,3.7244,3.7243,3.7195,3.7186,3.726,3.7269,3.728,3.7456,3.7292,3.7299,3.7304,3.7672,3.7679,3.7685,0,0,0,0,0,0,3.7077,3.7095,3.7243,3.7169,3.7186,3.7179,3.7226,3.7222,3.7248,3.7249,3.7247,3.7224,3.7256,3.727,3.7378,3.7457,3.7303,3.7309,3.7665,3.7674,3.7682,3.7809,0,0,0,0,0,0,3.7071,3.7095,3.7152,3.7171,3.7191,3.7341,3.7231,3.7227,3.7261,3.725,3.7276,3.7275,3.7253,3.7368,3.7386,3.7464,3.7315,3.7658,3.7669,3.7679,3.7798,3.782,3.784,0,0,0,0,0,3.7064,3.7185,3.7155,3.7174,3.7262,3.7346,3.7357,3.733,3.7268,3.7325,3.7325,3.7274,3.7445,3.738,3.7399,3.7481,3.7653,3.7666,3.7678,3.7788,3.7816,3.784,0,0,0,0,0,0,3.7175,3.7187,3.7154,3.7285,3.7315,3.7329,3.7401,3.736,3.7409,3.7396,3.736,3.7366,3.7483,3.7492,3.7419,3.7626,3.7539,3.7556,3.7616,3.7642,3.7663,3.7658,3.7322,0,0,0,0,0,3.7215,3.7282,3.7289,3.7404,3.7421,3.7409,3.7444,3.742,3.745,3.7462,3.7471,3.7501,3.7562,3.7602,3.7658,3.7798,3.7802,3.7864,3.7885,3.7903,3.7918,3.7992,3.8019,3.7726,3.7726,3.7725,0,0,3.7298,3.7313,3.7358,3.7427,3.7448,3.7518,3.742,3.7499,3.7551,3.7474,3.7577,3.7585,3.7616,3.7741,3.7796,3.7753,3.8,3.7919,3.7933,3.7938,3.8007,3.8035,3.806,3.7734,3.7733,3.7731,0,0,3.7485,3.7503,3.7601,3.7623,3.7655,3.7646,3.767,3.769,3.7692,3.7794,3.7738,3.7799,3.7904,3.7928,3.7955,3.815,3.8104,3.8169,3.828,3.8352,3.8375,3.8396,3.8465,3.849,3.8184,3.8184,3.8185,0,3.7584,3.7688,3.7656,3.7739,3.7771,3.7704,3.7803,3.7826,3.7875,3.7898,3.7848,3.7978,3.7995,3.8124,3.8171,3.8195,3.822,3.8166,3.8375,3.8395,3.8413,3.8479,3.8505,3.8192,3.8191,3.819,3.819,0,3.7808,3.7881,3.7956,3.8005,3.8045,3.8135,3.8116,3.816,3.8133,3.8128,3.8233,3.8251,3.8308,3.8337,3.8311,3.8462,3.8434,3.8381,3.8292,3.8449,3.851,3.8535,3.8203,3.82,3.8198,3.8196,0,0,3.8068,3.8097,3.8125,3.8146,3.8176,3.8232,3.8318,3.8374,3.8413,3.8448,3.8519,3.8609,3.8559,3.8589,3.8565,3.8629,3.8781,3.8567,3.8567,3.8606,3.8948,3.8988,3.9018,3.8751,3.8755,3.8759,3.8945,0,3.8254,3.8404,3.8377,3.8523,3.8589,3.8527,3.8602,3.8628,3.8626,3.8682,3.8679,3.8743,3.8673,3.869,3.875,3.875,3.8849,3.8736,3.8816,3.8819,3.881,3.905,3.9093,3.9268,3.8969,3.8973,3.8976,0,3.8492,3.8536,3.8689,3.8707,3.8734,3.8802,3.8851,3.8905,3.8933,3.8927,3.896,3.8923,3.9009,3.8919,3.9035,3.8959,3.899,3.8995,3.9001,3.9007,3.8907,3.9062,3.9323,3.9349,3.9013,3.901,3.9007,0,3.8666,3.8764,3.8867,3.8887,3.8911,3.896,3.8973,3.8995,3.903,3.9073,3.9095,3.9147,3.9175,3.9216,3.9194,3.9131,3.9314,3.9223,3.9311,3.9312,3.9353,3.9351,3.9622,3.9373,3.9373,3.9373,3.9372,0,3.8877,3.8973,3.8945,3.9009,3.9114,3.9081,3.9186,3.919,3.9211,3.9274,3.9223,3.9283,3.925,3.9308,3.9291,3.939,3.9403,3.94,3.9394,3.9405,3.9405,3.9424,3.9412,3.9379,3.9378,3.9377,3.9375,0,3.909,3.9075,3.9184,3.9197,3.9203,3.928,3.9291,3.935,3.9343,3.9423,3.944,3.943,3.9495,3.9477,3.9547,3.9536,3.966,3.9639,3.9651,3.9646,3.9735,3.9727,4.0028,4.0066,3.9794,3.9796,3.9798,0,3.9225,3.9297,3.9318,3.9357,3.9373,3.9436,3.9471,3.9441,3.948,3.9517,3.9571,3.9631,3.9678,3.9784,3.9782,3.9835,3.9815,3.9917,3.9823,3.9831,3.9816,3.9812,3.9819,3.9936,3.9939,3.9942,3.9944,0,3.9467,3.9456,3.9509,3.956,3.9604,3.9642,3.9676,3.971,3.9682,3.9729,3.9794,3.983,3.9901,3.9961,4.0009,4.0021,3.9978,3.9973,3.9996,4.0008,4.0011,4.001,3.9702,3.9967,3.9964,3.9963,3.9961,3.9961,3.9645,3.9706,3.973,3.9791,3.9813,3.9845,3.9901,3.9901,3.9955,4.0011,3.9989,4.0064,4.0089,4.0149,4.0167,4.0225,4.0186,4.022,4.0228,4.0237,4.0248,4.0002,4.0233,4.0233,4.0232,4.0231,4.0231,0,3.9884,3.9897,3.9953,4.0001,4.0048,4.0003,4.0038,4.008,4.0147,4.0173,4.022,4.0295,4.0352,4.0355,4.0408,4.0454,4.0436,4.0469,4.0465,4.0469,4.028,4.0254,4.0483,4.0483,4.0483,4.0483,4.0483,4.0483,4.0015,4.0114,4.0106,4.0216,4.0227,4.03,4.0324,4.0353,4.0373,4.0459,4.0507,4.0508,4.0525,4.0579,4.0629,4.0628,4.065,4.0692,4.0683,4.0507,4.0482,4.0458,4.0434,4.0697,4.0697,4.0867,4.0869,4.087]},{"header":{"parameterUnit":"m.s-1","parameterCategory":1,"la1":30.2991,"la2":30.254,"lo1":-89.0895,"lo2":-89.0444,"dy":0.0017,"dx":0.0017,"nx":28,"ny":28,"refTime":"2023-08-03T09:00:00:Z","depth":0,"parameterNumber":3,"parameterNumberName":"V-component_of_WINDS"},"data":[0,0,0,0,0,0,0,0,0,0,0,0,0,0,0,0,0,0,0,0,0,0,0,0,0,0,0,0,0,0,0,0,0,0,0,0,0,0,0,0,0,0,0,0,0,0,0,0,0,0,0,0,0,0,0,0,0,0,5.0426,5.0428,0,5.0563,5.0564,5.0566,5.0543,5.0541,5.0539,5.0537,5.067,5.0676,5.0681,0,0,0,0,0,0,0,0,0,0,0,0,0,5.0138,5.0143,5.0426,5.0428,5.0429,5.0563,5.0564,5.0566,5.0544,5.0541,5.0538,5.0536,5.0668,5.0675,5.0682,0,0,0,0,0,0,0,0,0,0,0,0,0,5.0267,5.0145,5.0426,5.0434,5.0437,5.0562,5.0565,5.0567,5.0545,5.0541,5.0537,5.0534,5.0666,5.0674,5.0683,5.0806,0,0,5.0709,5.0713,0,0,0,0,0,0,0,0,5.026,5.0278,5.0431,5.0434,5.0437,5.0533,5.0512,5.0647,5.0545,5.0503,5.0537,5.0532,5.0627,5.0638,5.0672,5.0813,5.0818,5.071,5.0715,5.0719,5.0721,0,0,0,0,0,0,0,5.0251,5.0272,5.048,5.0434,5.0437,5.0429,5.0444,5.0537,5.0583,5.0507,5.0505,5.0522,5.0627,5.0663,5.0674,5.082,5.071,5.0717,5.0723,5.0726,5.1067,5.1071,0,0,0,0,0,0,5.0241,5.0265,5.0476,5.0484,5.0338,5.0437,5.0453,5.0505,5.0582,5.059,5.0525,5.0521,5.065,5.0664,5.0679,5.0828,5.0719,5.0727,5.0732,5.1063,5.1068,5.1072,0,0,0,0,0,0,5.0235,5.026,5.047,5.0374,5.04,5.0446,5.0504,5.051,5.0546,5.0596,5.0603,5.0554,5.0648,5.0667,5.0775,5.0832,5.0731,5.0738,5.1058,5.1065,5.107,5.1126,0,0,0,0,0,0,5.0226,5.0258,5.0307,5.0376,5.0406,5.0566,5.0508,5.0515,5.0561,5.0557,5.0625,5.0633,5.0647,5.0762,5.0783,5.0842,5.0745,5.1054,5.1061,5.1068,5.112,5.1133,5.1145,0,0,0,0,0,5.0216,5.0316,5.031,5.0335,5.0469,5.0569,5.0586,5.0603,5.0566,5.0615,5.0647,5.063,5.0822,5.0773,5.0797,5.0859,5.105,5.1059,5.1068,5.1114,5.1131,5.1145,0,0,0,0,0,0,5.0252,5.0326,5.0319,5.0445,5.0501,5.0566,5.0628,5.062,5.0686,5.0679,5.0694,5.071,5.0819,5.085,5.0794,5.0981,5.0931,5.0945,5.0958,5.0974,5.0987,5.0977,5.0752,0,0,0,0,0,5.0274,5.0352,5.0412,5.0517,5.0546,5.0582,5.0626,5.0634,5.0692,5.0715,5.0755,5.081,5.0883,5.093,5.1,5.1124,5.1137,5.1178,5.1191,5.1201,5.1213,5.1279,5.1297,5.1101,5.1101,5.1101,0,0,5.0321,5.0371,5.042,5.0525,5.057,5.0648,5.0602,5.0687,5.0744,5.0727,5.0832,5.0863,5.0925,5.1042,5.1095,5.107,5.127,5.1212,5.122,5.1226,5.1289,5.1308,5.1324,5.1107,5.1106,5.1105,0,0,5.0447,5.0494,5.0586,5.0632,5.0701,5.0724,5.0746,5.0812,5.0832,5.0938,5.0926,5.0993,5.1118,5.1163,5.1202,5.1343,5.133,5.1365,5.1432,5.1496,5.1511,5.1525,5.1574,5.1592,5.1376,5.1377,5.1377,0,5.0497,5.0617,5.0634,5.072,5.0766,5.0756,5.0848,5.0891,5.0978,5.1008,5.098,5.1137,5.1178,5.1304,5.1338,5.137,5.1394,5.1357,5.1508,5.1522,5.1535,5.1582,5.16,5.138,5.138,5.1379,5.1379,0,5.0673,5.0756,5.0821,5.0908,5.0961,5.105,5.1078,5.1129,5.1131,5.1157,5.1263,5.1312,5.1391,5.1421,5.1424,5.1547,5.1529,5.1505,5.1454,5.1557,5.1601,5.162,5.1386,5.1384,5.1383,5.1382,0,0,5.0825,5.092,5.0944,5.0982,5.1057,5.112,5.1207,5.1286,5.1328,5.1388,5.146,5.1565,5.1543,5.1587,5.1594,5.1651,5.1758,5.1619,5.162,5.1642,5.1894,5.1912,5.1932,5.1749,5.1753,5.1756,5.1888,0,5.0958,5.1114,5.1132,5.127,5.1345,5.1336,5.1411,5.1464,5.1489,5.1555,5.1581,5.1656,5.1621,5.1647,5.1703,5.1733,5.1808,5.1724,5.1814,5.1817,5.1798,5.1956,5.1975,5.2098,5.1906,5.1909,5.1911,0,5.1133,5.12,5.1346,5.1409,5.1442,5.1509,5.1582,5.1646,5.1704,5.1718,5.1767,5.1767,5.1853,5.1799,5.1918,5.186,5.1897,5.1917,5.1922,5.1931,5.187,5.1967,5.2138,5.2156,5.1939,5.1936,5.1934,0,5.1229,5.1355,5.1458,5.1492,5.1568,5.1615,5.1649,5.1704,5.175,5.1812,5.1842,5.1913,5.1952,5.2005,5.2023,5.1982,5.214,5.2088,5.2152,5.2152,5.2185,5.2183,5.2363,5.2211,5.2211,5.221,5.221,0,5.1374,5.1464,5.1502,5.1566,5.1665,5.1683,5.1779,5.181,5.1859,5.1926,5.1922,5.1984,5.2004,5.207,5.2084,5.2179,5.2196,5.2208,5.2211,5.2209,5.2207,5.2233,5.2224,5.2215,5.2214,5.2213,5.2212,0,5.1498,5.1527,5.1639,5.1703,5.172,5.179,5.1843,5.1903,5.1927,5.2012,5.2033,5.207,5.2147,5.217,5.2262,5.2271,5.2382,5.2377,5.2363,5.2363,5.2426,5.2419,5.2628,5.2656,5.2486,5.2488,5.2489,0,5.1588,5.1657,5.1728,5.1774,5.181,5.1884,5.1931,5.195,5.1999,5.2069,5.212,5.2196,5.2259,5.2381,5.2414,5.2484,5.248,5.2548,5.249,5.2485,5.2479,5.2475,5.2481,5.2559,5.2561,5.2562,5.2564,0,5.1746,5.1757,5.1826,5.1901,5.1957,5.2016,5.2073,5.211,5.2137,5.2191,5.2271,5.2319,5.2413,5.2488,5.2558,5.2589,5.258,5.2582,5.26,5.2598,5.2587,5.2593,5.2392,5.2577,5.2575,5.2574,5.2574,5.2573,5.1855,5.1915,5.1975,5.2051,5.2096,5.2149,5.2208,5.224,5.2307,5.2387,5.2393,5.2479,5.2532,5.2627,5.2662,5.2727,5.2706,5.2733,5.274,5.2746,5.2751,5.2577,5.274,5.2739,5.2739,5.2739,5.2738,0,5.2011,5.2049,5.212,5.22,5.2259,5.2248,5.2309,5.2359,5.2435,5.2487,5.2549,5.2639,5.2711,5.275,5.2822,5.2866,5.2863,5.2884,5.288,5.2887,5.2765,5.2742,5.2885,5.2885,5.2885,5.2885,5.2885,5.2885,5.21,5.2201,5.2219,5.2341,5.2377,5.2463,5.2498,5.2546,5.2588,5.2689,5.275,5.2776,5.2822,5.2896,5.2961,5.297,5.2996,5.3019,5.3026,5.2911,5.2896,5.2882,5.286,5.3025,5.3025,5.3142,5.3143,5.3144]}]]